Orbital elements of LAPAN-TUBSAT
| Launched | 9 January 2007 |
| Flight ended | – |
| Launch site | Satish Dhawan Space Centre, India (Formerly Sriharikota Launching Range) |
| Owner | Indonesia |
| NORAD ID | 29709 |
| Date fetched |
Epoch osculation |
Inc. [°] |
Ecc. | RA asc node [hr] |
Arg Peri. [°] |
Mean anom [°] |
Mean motion [rev/day] |
Abs. mag |
| Date fetched |
Epoch osculation |
Inc. [°] |
Ecc. | RA asc node [hr] |
Arg Peri. [°] |
Mean anom [°] |
Mean motion [rev/day] |
Abs. mag |
| 2026 May 03 17:57 | 2026 May 03 11:22:23 | 98.1339 | 0.00117 | 8.1128 | 338.0871 | 21.9840 | 14.85905 | – |
| 2026 May 02 17:57 | 2026 May 02 12:44:48 | 98.1339 | 0.00119 | 8.0486 | 341.2607 | 21.9840 | 14.85905 | – |
| 2026 May 01 17:56 | 2026 May 01 12:30:16 | 98.1342 | 0.00120 | 7.9797 | 344.7490 | 21.9840 | 14.85905 | – |
| 2026 Apr 30 17:56 | 2026 Apr 30 05:47:50 | 98.1344 | 0.00120 | 7.8925 | 349.1951 | 21.9840 | 14.85905 | – |
| 2026 Apr 29 17:57 | 2026 Apr 29 12:01:10 | 98.1346 | 0.00121 | 7.8420 | 351.6253 | 21.9840 | 14.85905 | – |
| 2026 Apr 28 17:56 | 2026 Apr 28 11:46:37 | 98.1347 | 0.00121 | 7.7732 | 354.8206 | 21.9840 | 14.85905 | – |
| 2026 Apr 27 17:58 | 2026 Apr 27 13:09:03 | 98.1348 | 0.00122 | 7.7089 | 357.6772 | 21.9840 | 14.85905 | – |
| 2026 Apr 26 17:58 | 2026 Apr 25 22:21:46 | 98.1351 | 0.00123 | 7.5988 | 2.6068 | 21.9840 | 14.85905 | – |
| 2026 Apr 25 17:58 | 2026 Apr 25 12:39:56 | 98.1352 | 0.00124 | 7.5712 | 3.9901 | 21.9840 | 14.85905 | – |
| 2026 Apr 24 17:59 | 2026 Apr 24 05:57:30 | 98.1355 | 0.00125 | 7.4840 | 8.4227 | 21.9840 | 14.85905 | – |
| 2026 Apr 23 17:57 | 2026 Apr 23 07:19:55 | 98.1353 | 0.00126 | 7.4198 | 11.5552 | 21.9840 | 14.85905 | – |
| 2026 Apr 22 17:57 | 2026 Apr 22 05:28:24 | 98.1350 | 0.00126 | 7.3463 | 14.9803 | 21.9840 | 14.85905 | – |
| 2026 Apr 21 17:57 | 2026 Apr 21 11:41:43 | 98.1347 | 0.00126 | 7.2958 | 17.2914 | 21.9840 | 14.85905 | – |
| 2026 Apr 20 17:57 | 2026 Apr 20 11:27:10 | 98.1344 | 0.00127 | 7.2270 | 20.1378 | 21.9840 | 14.85905 | – |
| 2026 Apr 19 17:58 | 2026 Apr 19 11:12:36 | 98.1341 | 0.00128 | 7.1581 | 23.0009 | 21.9840 | 14.85905 | – |
| 2026 Apr 18 17:56 | 2026 Apr 18 06:07:08 | 98.1343 | 0.00129 | 7.0755 | 26.7734 | 21.9840 | 14.85905 | – |
| 2026 Apr 16 17:57 | 2026 Apr 16 05:38:01 | 98.1344 | 0.00131 | 6.9378 | 33.2513 | 21.9840 | 14.85905 | – |
| 2026 Apr 14 17:57 | 2026 Apr 14 13:13:45 | 98.1347 | 0.00131 | 6.8231 | 38.2581 | 21.9840 | 14.85905 | – |
| 2026 Apr 13 17:57 | 2026 Apr 13 06:31:18 | 98.1349 | 0.00132 | 6.7359 | 41.7997 | 21.9840 | 14.85905 | – |
| 2026 Apr 12 17:57 | 2026 Apr 12 11:07:39 | 98.1351 | 0.00132 | 6.6808 | 44.2021 | 21.9840 | 14.85905 | – |
| 2026 Apr 11 17:57 | 2026 Apr 11 12:30:03 | 98.1353 | 0.00133 | 6.6166 | 46.9233 | 21.9840 | 14.85905 | – |
| 2026 Apr 10 17:58 | 2026 Apr 10 05:47:36 | 98.1356 | 0.00134 | 6.5294 | 50.9162 | 21.9840 | 14.85905 | – |
| 2026 Apr 09 18:01 | 2026 Apr 09 05:33:02 | 98.1354 | 0.00134 | 6.4605 | 54.1177 | 21.9840 | 14.85905 | – |
| 2026 Apr 08 17:57 | 2026 Apr 08 06:55:26 | 98.1352 | 0.00134 | 6.3962 | 56.7768 | 21.9840 | 14.85905 | – |
| 2026 Apr 07 17:57 | 2026 Apr 07 05:03:54 | 98.1348 | 0.00134 | 6.3228 | 60.0903 | 21.9840 | 14.85905 | – |
| 2026 Apr 06 17:57 | 2026 Apr 06 06:26:18 | 98.1346 | 0.00135 | 6.2585 | 62.5787 | 21.9840 | 14.85905 | – |